FW1003 Weather Reports


Display with metric or nautical units.
time (UTC)temp
F
wind
direction
speed
MPH
gust
MPH
rain 1hr
in
rain 24hr
in
rain mn
in
humidity
%
barometer
mb
20260508130111 77 329 6.0 12.0 0.00 0.00 0.00 62 1017.2
20260508124556 77 30 4.0 13.0 0.00 0.00 0.00 60 1017.4
20260508123103 78 323 2.0 16.0 0.00 0.00 0.00 61 1017.6
20260508121603 78 284 6.0 15.0 0.00 0.00 0.00 60 1017.7
20260508120057 78 306 4.0 14.0 0.00 0.00 0.00 60 1017.8
20260508114652 78 222 5.0 16.0 0.00 0.00 0.00 58 1017.9
20260508113051 77 330 5.0 14.0 0.00 0.00 0.00 59 1018.2
20260508111550 77 307 7.0 14.0 0.00 0.00 0.00 58 1018.4
20260508110052 79 350 5.0 14.0 0.00 0.00 0.00 57 1018.5
20260508104616 78 218 5.0 15.0 0.00 0.00 0.00 58 1018.6
20260508103048 78 351 7.0 15.0 0.00 0.00 0.00 57 1018.6
20260508101550 78 300 5.0 15.0 0.00 0.00 0.00 57 1018.6
20260508100047 78 355 4.0 13.0 0.00 0.00 0.00 58 1018.6
20260508094547 77 298 8.0 14.0 0.00 0.00 0.00 58 1018.8
20260508093044 78 290 3.0 14.0 0.00 0.00 0.00 58 1019.0
20260508091541 77 304 5.0 13.0 0.00 0.00 0.00 59 1019.2
20260508090050 77 315 6.0 19.0 0.00 0.00 0.00 59 1019.3
20260508084537 77 306 6.0 16.0 0.00 0.00 0.00 59 1019.4
20260508083044 77 311 4.0 13.0 0.00 0.00 0.00 59 1019.6
20260508081540 76 302 7.0 13.0 0.00 0.00 0.00 58 1019.9
20260508080030 77 302 2.0 14.0 0.00 0.00 0.00 59 1019.8
20260508074527 76 317 5.0 15.0 0.00 0.00 0.00 59 1019.8
20260508073024 76 335 6.0 15.0 0.00 0.00 0.00 58 1019.6
20260508071522 76 313 3.0 10.0 0.00 0.00 0.00 59 1019.6
20260508070022 77 360 2.0 12.0 0.00 0.00 0.00 58 1019.6
20260508064514 75 304 3.0 12.0 0.00 0.00 0.00 57 1019.8
20260508063009 75 286 5.0 11.0 0.00 0.00 0.00 57 1019.7
20260508061508 75 327 2.0 10.0 0.00 0.00 0.00 59 1019.9
20260508060005 74 316 2.0 6.0 0.00 0.00 0.00 59 1019.9
20260508054559 73 360 3.0 7.0 0.00 0.00 0.00 60 1020.0
20260508053104 73 360 2.0 5.0 0.00 0.00 0.00 62 1020.0
20260508051552 71 306 3.0 9.0 0.00 0.00 0.00 64 1019.8
20260508050046 70 321 5.0 12.0 0.00 0.00 0.00 65 1019.8
20260508044542 69 360 6.0 11.0 0.00 0.00 0.00 66 1019.6
20260508043055 68 360 6.0 10.0 0.00 0.00 0.00 67 1019.8
20260508041535 67 360 5.0 10.0 0.00 0.00 0.00 69 1019.5
20260508040031 66 348 4.0 9.0 0.00 0.00 0.00 71 1019.3
20260508034525 64 360 3.0 8.0 0.00 0.00 0.00 72 1018.9
20260508033020 63 360 3.0 6.0 0.00 0.00 0.00 72 1018.9
20260508031521 62 360 3.0 6.0 0.00 0.00 0.00 73 1018.6
20260508030114 62 360 1.0 4.0 0.00 0.00 0.00 74 1018.5
20260508024512 62 360 2.0 3.0 0.00 0.00 0.00 74 1018.5
20260508023016 62 360 2.0 4.0 0.00 0.00 0.00 74 1018.4
20260508021510 62 360 2.0 4.0 0.00 0.00 0.00 74 1018.1
20260508020012 62 360 3.0 4.0 0.00 0.00 0.00 73 1018.0
20260508014512 63 351 3.0 5.0 0.00 0.00 0.00 74 1018.1
20260508013005 63 360 2.0 5.0 0.00 0.00 0.00 74 1018.3
20260508011506 63 360 2.0 4.0 0.00 0.00 0.00 73 1018.3
20260508010004 63 360 2.0 4.0 0.00 0.00 0.00 73 1018.4
20260508004606 63 325 3.0 6.0 0.00 0.00 0.00 73 1018.6
20260508003101 63 360 3.0 6.0 0.00 0.00 0.00 73 1018.6
20260508001558 64 360 3.0 6.0 0.00 0.00 0.00 73 1018.7
20260508000057 64 360 2.0 4.0 0.00 0.00 0.00 73 1018.9
20260507234556 64 360 1.0 5.0 0.00 0.00 0.00 73 1018.9
20260507233056 64 360 1.0 4.0 0.00 0.00 0.00 72 1019.2
20260507231554 64 311 1.0 5.0 0.00 0.00 0.00 72 1019.1
20260507230059 64 315 1.0 4.0 0.00 0.00 0.00 71 1019.2
20260507224552 64 360 0.0 3.0 0.00 0.00 0.00 70 1019.2
20260507223049 65 318 1.0 4.0 0.00 0.00 0.00 70 1019.5
20260507221546 65 360 2.0 4.0 0.00 0.00 0.00 69 1019.4
20260507220042 66 319 2.0 6.0 0.00 0.00 0.00 69 1019.4
20260507214541 66 360 3.0 9.0 0.00 0.00 0.00 70 1019.3
20260507213041 66 317 2.0 8.0 0.00 0.00 0.00 69 1019.3
20260507211534 66 360 3.0 9.0 0.00 0.00 0.00 69 1019.3
20260507210012 65 360 2.0 8.0 0.00 0.00 0.00 70 1019.1
20260507204512 65 360 2.0 6.0 0.00 0.00 0.00 69 1019.0
20260507203011 65 360 3.0 8.0 0.00 0.00 0.00 70 1018.9
20260507201513 65 360 3.0 6.0 0.00 0.00 0.00 69 1018.8
20260507200008 65 360 3.0 6.0 0.00 0.00 0.00 69 1018.9
20260507194507 65 360 2.0 6.0 0.00 0.00 0.00 69 1018.9
20260507193006 65 321 3.0 6.0 0.00 0.00 0.00 69 1019.0
20260507191506 66 296 3.0 5.0 0.00 0.00 0.00 68 1019.1
20260507190006 66 360 3.0 6.0 0.00 0.00 0.00 68 1019.0
20260507184501 66 360 5.0 11.0 0.00 0.00 0.00 67 1019.1
20260507183105 66 315 3.0 8.0 0.00 0.00 0.00 67 1019.1
20260507181559 67 360 3.0 8.0 0.00 0.00 0.00 67 1019.2
20260507180056 67 319 3.0 6.0 0.00 0.00 0.00 66 1019.0
20260507174555 67 360 2.0 8.0 0.00 0.00 0.00 66 1018.8
20260507173057 67 360 4.0 8.0 0.00 0.00 0.00 66 1018.8
20260507171554 67 360 3.0 8.0 0.00 0.00 0.00 65 1018.7
20260507170055 67 360 3.0 6.0 0.00 0.00 0.00 64 1018.6
20260507164605 68 327 3.0 9.0 0.00 0.00 0.00 63 1018.6
20260507163049 68 338 4.0 10.0 0.00 0.00 0.00 61 1018.6
20260507161549 69 351 7.0 14.0 0.00 0.00 0.00 60 1018.5
20260507160048 69 329 7.0 15.0 0.00 0.00 0.00 59 1018.4
20260507154544 70 309 3.0 12.0 0.00 0.00 0.00 60 1018.4
20260507153045 70 313 6.0 12.0 0.00 0.00 0.00 59 1018.4
20260507151543 70 330 5.0 14.0 0.00 0.00 0.00 59 1018.6
20260507150034 70 350 6.0 14.0 0.00 0.00 0.00 59 1018.7
20260507144532 71 360 7.0 14.0 0.00 0.00 0.00 58 1018.4
20260507143053 71 315 5.0 13.0 0.00 0.00 0.00 58 1018.4
20260507141539 71 360 6.0 17.0 0.00 0.00 0.00 56 1018.4
20260507140022 73 328 7.0 16.0 0.00 0.00 0.00 54 1018.4
20260507134520 73 333 9.0 18.0 0.00 0.00 0.00 52 1018.4
20260507133022 73 317 9.0 19.0 0.00 0.00 0.00 52 1018.5
20260507131518 74 285 4.0 14.0 0.00 0.00 0.00 51 1018.6